User: anonymous   Login
Location: Squamish
(49.7000°N, 123.1500°W)
Time: 06:23:14
(UTC-07:00)
Language:

NOAA 19 - Orbit

View from above orbital plane
View from above orbital plane
View from above satellite
View from above satellite

Ground track
Ground track

The orbit data is extracted from the following two-line orbital elements,

1 33591U 09005A   15211.46372246  .00000077  00000-0  66915-4 0  9994
2 33591 098.9925 161.4527 0014987 050.7816 309.4683 14.11960917333592
Epoch (UTC): 30 July 2015 11:07:45
Eccentricity: 0.0014987
inclination: 98.9925°
perigee height: 842 km
apogee height: 863 km
right ascension of ascending node: 161.4527°
argument of perigee: 50.7816°
revolutions per day: 14.11960917
mean anomaly at epoch: 309.4683°
orbit number at epoch: 33359

The dashed part of the orbit path shows where the satellite is in the earth's shadow,  

DLR